Date,TemperatureHighF,TemperatureAvgF,TemperatureLowF,DewpointHighF,DewpointAvgF,DewpointLowF,HumidityHigh,HumidityAvg,HumidityLow,PressureMaxIn,PressureMinIn,WindSpeedMaxMPH,WindSpeedAvgMPH,GustSpeedMaxMPH,PrecipitationSumIn
2013-1-9,48.3,43.4,40.1,36.3,34.1,31.6,77,70,63,30.33,30.24,1,1,12,0.00
2013-1-10,55.5,43.8,37.6,30.0,26.3,24.3,65,51,33,30.55,30.34,4,1,15,0.00
2013-1-11,46.0,41.8,34.3,42.2,33.7,25.2,87,73,62,30.52,30.10,3,1,8,0.08
2013-1-12,54.5,46.5,43.8,45.3,41.6,39.6,87,83,69,30.18,30.11,1,0,6,0.00
2013-1-13,50.0,47.4,45.1,47.2,44.1,41.7,90,88,86,30.16,30.00,2,1,7,0.00
2013-1-14,54.1,50.4,42.5,51.0,43.5,34.0,91,78,55,30.31,29.95,3,1,13,0.00
2013-1-15,42.3,39.2,36.9,35.9,29.3,26.2,79,68,59,30.36,30.20,4,2,13,0.00
2013-1-16,38.7,36.8,34.7,33.7,31.9,29.5,84,82,79,30.17,29.84,4,1,11,0.00
2013-1-17,44.0,40.2,38.4,34.1,28.9,26.9,83,64,53,30.11,29.96,4,1,13,0.00
2013-1-18,39.2,33.2,28.9,27.6,14.2,8.1,66,46,30,30.50,30.05,7,3,23,0.00
2013-1-19,56.1,40.6,29.8,28.6,23.9,12.9,68,52,33,30.41,29.92,6,3,16,0.00
2013-1-20,56.0,43.2,30.9,29.5,21.2,8.7,62,43,24,30.07,29.77,5,1,14,0.27
2013-1-21,35.6,30.6,25.7,22.5,11.9,7.1,71,46,36,30.11,29.86,0,0,0,0.00
2013-1-22,25.3,19.8,15.0,6.4,-3.7,-8.0,45,35,27,30.25,29.89,0,0,0,0.00
2013-1-23,23.1,17.3,13.8,4.4,-1.4,-6.8,59,44,31,30.29,30.14,0,0,0,0.00
2013-1-24,28.5,21.5,17.0,6.1,0.2,-5.3,59,40,26,30.44,30.10,0,0,0,0.00
2013-1-25,25.5,18.8,11.6,11.7,2.7,-3.8,69,50,33,30.45,30.07,0,0,0,0.00
2013-2-2,33.2,28.0,19.7,21.0,10.2,2.7,75,49,31,30.36,30.04,5,2,16,0.00
2013-2-3,35.6,29.4,26.5,23.1,19.4,10.6,77,67,50,30.03,29.84,5,1,15,0.03
2013-2-4,32.4,27.4,21.6,20.5,10.6,7.5,67,49,38,30.07,29.92,6,2,19,0.01
2013-2-5,35.2,32.8,30.4,28.3,24.9,20.7,80,73,66,29.98,29.90,2,1,6,0.00
2013-2-6,39.9,33.0,27.3,27.8,21.8,16.9,81,64,45,30.39,29.96,4,1,14,0.01
2013-2-7,36.5,31.1,24.6,21.3,16.0,11.3,71,54,38,30.51,30.26,5,2,13,0.00
2013-2-8,36.6,35.1,33.0,31.7,29.3,22.3,84,79,62,30.25,29.72,7,4,20,0.23
2013-2-9,37.7,29.6,24.7,29.5,15.2,7.6,84,56,40,30.41,29.83,8,3,22,0.06
2013-2-10,51.2,32.4,19.9,21.6,11.9,7.4,59,44,21,30.52,30.30,3,1,8,0.00
2013-2-11,48.8,41.2,34.2,45.4,35.8,21.2,90,81,57,30.28,29.70,3,1,13,0.30
2013-2-12,49.3,41.3,31.9,35.5,24.9,21.7,79,53,37,30.01,29.81,6,3,21,0.00
2013-2-13,48.3,36.5,26.8,29.9,25.2,20.1,81,65,44,29.99,29.71,3,1,10,0.02
2013-2-14,53.7,40.0,33.8,31.3,28.9,26.1,84,66,40,30.04,29.77,3,1,11,0.12
2013-2-15,63.4,44.9,34.0,33.0,30.0,26.0,78,58,31,30.06,29.94,4,1,14,0.02
2013-2-16,39.8,36.2,30.7,31.7,23.5,8.6,81,61,39,30.01,29.79,5,2,23,0.02
2013-2-17,33.9,28.0,21.6,13.9,4.8,-1.8,53,37,31,30.11,29.77,7,5,24,0.00
2013-2-18,42.8,29.5,20.6,12.3,6.6,0.2,45,38,27,30.35,30.11,6,2,18,0.00
2013-2-19,44.4,38.6,31.4,38.9,27.3,12.1,82,64,44,30.19,29.73,6,3,17,0.17
2013-2-20,35.8,30.3,25.2,20.3,10.3,6.3,53,43,34,30.09,29.82,7,5,28,0.00
2013-2-21,38.7,30.3,24.9,14.9,11.0,6.5,52,44,35,30.33,30.05,6,4,18,0.00
2013-2-22,39.4,32.9,25.0,29.6,19.1,11.8,75,57,46,30.43,30.27,4,2,11,0.00
2013-2-23,46.6,41.3,36.2,42.0,36.6,30.3,86,83,78,30.26,29.84,4,1,12,0.10
2013-2-24,48.1,39.6,32.5,34.9,27.3,17.6,82,63,45,30.07,29.80,5,2,18,0.00
2013-2-25,50.4,38.0,30.9,28.4,22.2,18.1,69,54,38,30.26,30.07,4,2,13,0.00
2013-2-26,46.8,37.1,27.8,34.3,27.6,20.3,84,69,52,30.29,29.76,9,4,25,0.47
2013-2-27,53.6,45.8,38.9,43.8,37.8,33.5,88,75,56,29.74,29.53,8,4,23,0.12
2013-2-28,46.9,42.9,36.6,34.1,30.1,25.5,74,61,44,29.71,29.61,3,1,12,0.00
2013-3-1,46.9,38.9,32.1,29.1,26.2,23.4,78,61,46,29.85,29.68,5,2,17,0.00
2013-3-2,43.3,36.8,32.9,23.0,20.6,18.1,60,52,41,29.86,29.76,4,3,16,0.00
2013-3-3,40.4,33.8,28.6,18.6,16.3,13.3,57,49,39,29.84,29.76,5,3,16,0.00
2013-3-4,44.2,35.4,30.8,19.4,16.9,12.9,56,47,35,30.00,29.84,6,4,21,0.00
2013-3-5,56.6,40.9,31.6,26.4,22.7,18.7,64,49,31,30.07,29.95,4,2,14,0.00
2013-3-6,41.0,38.7,36.4,33.7,30.0,25.1,77,71,60,29.99,29.77,13,8,34,0.14
2013-3-7,47.8,40.9,37.0,27.3,24.6,23.0,66,52,42,30.13,29.97,6,5,23,0.00
2013-3-8,43.2,36.6,31.1,28.9,25.3,21.5,77,64,52,30.26,30.08,6,4,20,0.04
2013-3-9,68.5,45.7,31.8,26.4,21.3,19.1,59,41,17,30.34,30.23,3,2,11,0.00
2013-3-10,66.2,45.6,31.2,36.1,28.5,19.9,73,53,27,30.39,30.28,5,2,11,0.00
2013-3-11,61.4,49.8,40.9,46.3,40.5,33.2,85,72,44,30.31,30.04,5,3,14,0.00
2013-3-12,57.8,52.2,42.1,54.0,45.7,30.8,88,79,63,30.02,29.72,8,4,20,0.98
2013-3-13,53.8,42.7,35.5,32.3,25.6,16.2,69,52,33,29.98,29.86,6,3,17,0.00
2013-3-14,43.3,36.5,31.4,17.1,12.6,8.2,55,38,28,30.04,29.95,7,5,23,0.00
2013-3-15,52.2,41.1,29.9,28.8,18.9,8.4,50,41,33,30.06,29.76,5,2,20,0.00
2013-3-16,46.5,38.8,34.7,30.2,27.2,20.8,80,64,45,29.97,29.79,4,2,12,0.08
2013-3-17,43.3,35.8,29.9,29.8,21.1,14.9,79,57,40,30.33,29.95,6,2,16,0.06
2013-3-18,40.8,35.1,31.1,32.5,21.6,11.3,84,59,43,30.40,29.92,6,4,19,0.46
2013-3-19,54.0,42.5,37.1,36.0,29.7,17.8,84,64,32,29.91,29.74,6,3,18,0.20
2013-3-20,50.9,41.1,33.6,22.7,16.7,14.2,50,38,27,29.97,29.82,6,3,19,0.00
2013-3-21,40.6,35.2,30.0,26.1,16.6,8.0,73,48,29,29.84,29.71,5,3,15,0.00
2013-3-22,43.6,35.1,29.0,19.6,16.2,10.4,57,46,35,29.98,29.81,6,4,16,0.00
2013-3-23,52.1,40.2,31.8,19.9,17.7,15.8,53,41,27,30.00,29.90,5,3,19,0.00
2013-3-24,50.2,39.8,29.7,23.5,19.4,16.4,63,45,30,30.02,29.71,5,1,17,0.00
2013-3-25,39.5,37.2,35.1,32.2,29.1,23.3,83,73,52,29.70,29.51,7,2,18,0.35
2013-3-26,53.0,42.8,35.5,33.6,30.5,24.6,83,64,36,29.95,29.68,3,1,13,0.03
2013-3-27,52.8,43.1,33.0,31.8,27.5,23.8,78,56,33,30.08,29.94,5,2,26,0.00
2013-3-28,48.6,43.0,34.2,27.4,25.9,23.9,68,52,38,30.19,30.04,5,3,18,0.00
2013-3-29,54.0,45.1,33.6,30.0,26.7,23.6,67,49,35,30.23,30.13,4,1,14,0.00
2013-3-30,63.8,46.9,31.5,28.8,26.2,23.1,75,48,24,30.25,30.13,4,1,12,0.00
2013-3-31,57.8,47.6,37.5,45.2,36.0,28.0,86,66,37,30.17,29.76,7,2,18,0.10
2013-4-1,63.6,49.5,39.5,43.2,32.4,11.3,87,56,29,30.00,29.70,7,3,22,0.00
2013-4-2,49.3,40.2,33.1,14.4,12.2,9.0,42,32,23,30.16,30.00,5,3,20,0.00
2013-4-3,51.2,39.9,31.2,15.8,12.0,8.3,45,32,24,30.36,30.17,5,2,20,0.00
2013-4-4,59.9,42.4,28.7,25.5,18.0,10.9,52,38,24,30.46,30.12,4,1,13,0.00
2013-4-5,67.4,51.4,40.2,32.2,25.8,17.3,72,42,20,30.11,29.79,5,2,17,0.00
2013-4-6,61.4,46.4,36.1,23.6,18.7,13.5,49,34,20,30.36,30.04,4,2,15,0.00
2013-4-7,69.0,52.3,40.1,42.5,34.2,23.5,66,51,33,30.33,30.03,8,3,20,0.00
2013-4-8,82.3,63.8,47.7,50.1,44.8,39.8,76,53,30,30.11,30.00,4,1,15,0.00
2013-4-9,86.4,71.9,58.9,52.4,49.4,45.5,70,48,26,30.04,29.95,5,2,19,0.00
2013-4-10,90.1,73.6,60.2,59.6,54.3,50.4,86,54,32,29.96,29.79,7,2,33,0.32
2013-4-11,68.0,61.4,51.0,60.2,54.3,42.6,91,78,60,29.98,29.83,7,3,20,0.01
2013-4-12,51.4,46.8,44.7,44.2,42.1,40.8,87,84,73,29.97,29.71,9,5,23,0.61
2013-4-13,63.4,52.2,40.9,42.2,37.7,33.9,89,61,34,30.00,29.74,4,1,13,0.00
2013-4-14,64.6,53.4,40.6,37.9,33.6,26.0,78,50,27,30.19,30.00,5,1,17,0.00
2013-4-15,63.5,53.4,47.8,43.0,35.8,30.4,57,51,46,30.35,30.18,4,3,13,0.00
2013-4-16,74.6,60.8,47.7,55.3,48.2,40.9,78,64,48,30.37,30.15,6,3,18,0.00
2013-4-17,77.6,63.9,57.1,54.5,48.0,41.6,85,60,30,30.30,30.12,4,1,14,0.00
2013-4-18,62.5,57.8,53.4,54.0,48.2,39.3,83,71,58,30.32,30.09,5,2,14,0.01
2013-4-19,77.4,66.8,57.4,63.9,59.1,51.3,85,77,60,30.10,29.65,7,4,22,0.32
2013-4-20,62.5,53.0,47.1,50.8,33.5,24.1,82,50,31,30.33,29.75,5,2,17,0.09
2013-4-21,61.5,48.1,36.7,29.6,24.3,19.0,55,40,27,30.63,30.32,5,2,16,0.00
2013-4-22,58.1,47.2,35.7,37.0,31.9,27.2,73,57,40,30.63,30.47,8,4,23,0.00
2013-4-23,53.0,48.0,43.1,41.1,37.0,31.6,75,66,56,30.48,30.16,5,3,15,0.00
2013-4-24,77.2,58.3,40.4,56.8,46.2,34.4,83,65,45,30.17,29.83,6,2,16,0.00
2013-4-25,68.5,55.9,44.8,54.3,32.3,28.1,77,43,23,30.29,29.90,6,3,20,0.00
2013-4-26,69.9,54.4,40.4,35.5,33.2,29.5,73,48,25,30.44,30.29,3,1,13,0.00
2013-4-27,75.4,57.0,39.5,38.4,33.9,30.3,75,46,23,30.47,30.30,3,1,11,0.00
2013-4-28,74.3,59.4,45.3,44.4,37.0,29.0,73,46,27,30.33,30.21,4,2,13,0.00
2013-4-29,59.0,55.8,52.8,53.5,50.0,42.9,86,81,61,30.25,30.15,3,2,12,0.42
2013-4-30,74.0,60.2,51.7,51.1,44.3,32.2,86,60,32,30.34,30.19,6,2,17,0.03
2013-5-1,74.1,56.7,40.9,43.4,36.9,30.6,76,51,27,30.49,30.33,5,2,17,0.00
2013-5-2,76.4,59.0,43.0,47.8,41.0,36.6,80,55,29,30.48,30.35,3,1,12,0.00
2013-5-3,70.7,57.9,49.2,42.0,39.5,35.6,72,52,32,30.45,30.35,6,3,21,0.00
2013-5-4,74.6,57.5,43.4,44.9,40.4,37.0,80,56,32,30.39,30.23,5,2,24,0.00
2013-5-5,70.1,54.9,43.1,44.0,39.6,36.4,78,58,37,30.30,30.21,5,2,13,0.00
2013-5-6,71.5,57.5,46.7,53.2,46.7,38.8,80,68,50,30.26,30.14,4,2,13,0.00
2013-5-7,73.4,61.7,54.3,60.2,54.3,48.8,88,77,59,30.17,30.06,4,2,15,0.09
2013-5-8,73.9,63.8,60.0,61.0,56.8,53.3,89,79,49,30.08,29.95,3,1,11,0.45
2013-5-9,71.3,62.9,57.8,56.0,54.4,52.4,88,75,55,30.01,29.93,3,0,11,0.42
2013-5-10,84.3,68.6,54.1,61.8,55.1,50.3,90,66,35,30.03,29.92,3,1,12,0.12
2013-5-11,75.2,66.6,62.8,63.9,61.1,58.9,91,83,68,29.95,29.74,3,1,15,0.14
2013-5-12,66.7,60.2,51.4,59.0,40.7,26.1,87,53,27,30.00,29.73,4,1,21,0.02
2013-5-13,55.7,50.4,42.8,33.3,29.1,22.8,68,45,29,30.15,29.99,3,1,15,0.00
2013-5-14,63.0,51.1,37.3,36.7,30.8,27.5,76,49,27,30.19,30.06,3,1,11,0.01
2013-5-15,72.3,62.2,51.4,58.2,48.8,35.1,81,62,49,30.09,29.74,5,2,13,0.01
2013-5-16,81.3,68.2,57.4,62.6,57.9,52.9,88,71,50,29.87,29.74,3,1,14,0.00
2013-5-17,75.1,64.7,53.9,54.3,44.9,40.0,78,51,32,30.20,29.86,3,1,11,0.01
2013-5-18,69.6,61.8,57.7,55.3,51.1,45.3,85,69,53,30.30,30.20,3,1,11,0.00
2013-5-19,63.0,60.4,58.2,59.4,56.9,54.3,91,88,86,30.29,30.17,1,0,10,0.01
2013-5-20,77.5,67.6,59.9,66.5,61.9,57.3,92,83,67,30.18,30.01,3,1,8,0.00
2013-5-21,85.5,73.7,63.1,70.0,65.4,59.8,92,76,58,30.02,29.89,4,2,11,0.01
2013-5-22,89.0,76.2,67.7,71.6,67.8,64.3,90,77,55,29.94,29.85,3,0,10,0.01
2013-5-23,82.8,73.6,68.4,68.9,66.6,63.4,87,79,57,29.92,29.78,0,0,0,0.00
2013-5-24,69.6,57.0,47.2,62.2,50.1,36.8,91,78,60,30.05,29.73,4,1,19,0.01
2013-5-25,60.7,53.8,47.2,39.6,35.9,32.7,74,52,35,30.09,30.00,4,2,21,0.00
2013-5-26,69.8,59.2,49.0,40.4,35.6,32.1,61,43,27,30.23,30.06,4,2,19,0.01
2013-5-27,77.5,60.6,43.9,52.6,41.2,37.6,82,52,27,30.65,30.17,2,1,9,0.00
2013-5-28,64.9,60.7,55.0,61.6,55.0,44.7,91,82,60,30.23,30.12,1,0,6,0.00
2013-5-29,89.3,74.0,61.7,67.1,63.3,59.4,94,72,44,30.13,30.05,4,1,15,0.00
2013-5-30,91.7,79.5,67.0,66.9,64.4,61.9,87,62,39,30.17,30.10,2,1,13,0.01
2013-5-31,93.6,79.9,67.5,68.2,64.2,60.6,88,62,34,30.16,30.03,4,2,17,0.00
2013-6-1,92.0,80.4,69.4,69.2,66.0,64.2,84,63,41,30.06,29.93,4,2,13,0.00
2013-6-2,87.5,79.2,72.5,69.8,66.9,63.0,79,66,53,29.95,29.82,4,2,16,0.00
2013-6-3,77.9,72.3,66.1,69.2,66.8,61.8,90,83,69,29.89,29.83,3,0,12,0.01
2013-6-4,76.6,66.3,56.6,61.1,48.3,43.2,85,54,35,30.12,29.89,4,1,15,0.00
2013-6-5,80.5,66.4,52.9,52.6,47.8,43.7,83,55,32,30.21,30.10,2,1,9,0.00
2013-6-6,74.1,65.8,57.8,61.6,54.7,50.7,85,69,45,30.15,29.98,4,1,13,0.01
2013-6-7,67.4,64.5,61.7,63.7,60.6,57.5,89,87,83,29.98,29.63,5,1,19,3.77
2013-6-8,76.6,68.3,61.0,63.8,60.2,57.1,88,76,61,30.09,29.62,2,1,16,0.01
2013-6-9,82.8,71.3,59.5,63.5,59.0,54.7,86,67,44,30.21,30.08,2,0,8,0.00
2013-6-10,72.7,70.3,66.6,70.3,65.9,60.9,93,86,73,30.17,29.81,3,1,11,2.09
2013-6-11,81.1,73.9,67.0,69.1,64.5,59.2,92,74,58,29.82,29.71,4,2,17,0.06
2013-6-12,83.6,73.4,65.2,60.6,58.5,55.0,80,61,38,29.86,29.79,3,1,13,0.00
2013-6-13,80.7,70.7,63.3,69.4,61.5,54.4,88,73,62,29.85,29.42,3,1,15,0.58
2013-6-14,75.8,64.8,56.7,56.7,52.9,48.8,84,67,46,29.95,29.50,4,2,19,0.01
2013-6-15,81.9,69.5,57.4,58.8,54.9,52.2,84,62,38,30.06,29.94,2,0,16,0.00
2013-6-16,80.8,70.2,60.5,65.7,59.4,53.7,83,70,51,30.03,29.84,4,1,17,0.00
2013-6-17,87.2,75.1,65.5,67.8,64.6,61.6,89,71,48,29.95,29.87,3,1,12,0.00
2013-6-18,77.0,69.1,65.1,69.2,64.2,60.8,91,85,72,29.93,29.83,2,0,11,0.60
2013-6-19,78.6,69.0,60.7,63.4,54.5,48.6,91,63,38,30.17,29.88,4,1,14,0.01
2013-6-20,82.2,69.8,57.8,58.6,54.4,48.9,84,60,42,30.29,30.16,3,1,11,0.00
2013-6-21,85.8,71.3,58.4,59.6,53.7,48.9,79,56,34,30.33,30.25,3,1,9,0.00
2013-6-22,87.1,73.4,59.7,64.9,60.0,52.7,84,64,45,30.28,30.14,3,1,9,0.00
2013-6-23,87.9,76.0,64.9,71.6,66.2,60.1,86,72,53,30.22,30.07,3,1,11,0.00
2013-6-24,91.3,78.1,71.3,72.4,68.6,64.1,91,74,50,30.11,30.00,4,1,14,0.00
2013-6-25,92.2,77.1,66.8,75.8,67.1,62.7,89,73,45,30.03,29.87,4,1,14,0.03
2013-6-26,89.5,76.9,67.8,71.2,67.7,64.3,90,74,55,29.90,29.80,3,0,14,0.18
2013-6-27,89.8,77.3,70.2,73.4,70.3,67.9,93,80,55,29.84,29.58,5,1,22,0.64
2013-6-28,86.8,75.6,69.8,72.0,68.5,66.2,91,80,56,29.61,29.51,3,1,11,0.02
2013-6-29,86.9,76.2,68.1,67.3,65.3,62.6,93,71,48,29.71,29.51,3,1,11,0.00
2013-6-30,83.2,75.1,70.0,73.7,69.8,64.4,92,84,71,29.90,29.71,2,0,8,0.11
2013-7-1,78.1,75.4,72.1,73.4,71.6,69.3,93,88,80,30.03,29.89,4,2,11,0.34
2013-7-2,85.6,77.4,74.0,72.9,71.2,69.5,90,82,65,30.20,30.03,4,2,14,0.02
2013-7-3,85.1,77.1,71.9,75.7,71.4,67.9,91,83,69,30.26,30.19,3,1,9,0.03
2013-7-4,89.5,80.6,73.6,73.4,71.7,68.9,93,76,58,30.27,30.18,4,2,13,0.00
2013-7-5,92.3,81.9,73.9,74.2,71.5,69.3,89,72,50,30.23,30.13,4,2,14,0.00
2013-7-6,94.6,83.8,75.5,73.0,71.7,70.0,88,68,49,30.18,30.06,3,2,15,0.00
2013-7-7,94.0,82.2,73.3,75.2,71.4,68.2,85,71,51,30.10,29.98,3,2,12,0.00
2013-7-8,87.6,75.9,70.6,71.9,67.6,66.1,87,76,53,30.09,30.03,3,1,12,0.02
2013-7-9,86.2,76.9,70.1,72.6,69.3,65.9,90,78,61,30.10,30.02,3,1,11,0.08
2013-7-10,87.8,79.8,74.1,73.3,71.8,70.7,91,78,59,30.04,29.85,4,2,16,0.00
2013-7-11,85.2,78.5,75.0,72.5,68.7,63.2,84,72,56,29.93,29.83,2,1,10,0.00
2013-7-12,76.3,72.7,69.8,68.0,64.3,60.6,89,75,62,30.05,29.93,5,2,15,0.91
2013-7-13,87.5,76.8,69.6,74.9,70.6,66.2,91,82,60,30.30,30.04,4,1,12,0.43
2013-7-14,91.9,80.6,73.3,73.2,71.6,68.5,92,76,53,30.36,30.27,1,0,7,0.00
2013-7-15,94.6,82.8,72.5,74.4,71.2,67.7,86,70,47,30.29,30.16,2,0,9,0.00
2013-7-16,92.6,82.4,74.3,72.5,69.7,65.5,89,68,43,30.23,30.15,3,1,15,0.00
2013-7-17,91.0,81.5,72.9,84.7,71.5,68.1,95,73,50,30.22,30.09,2,0,8,0.00
2013-7-18,95.8,84.7,75.6,76.2,72.8,69.6,84,69,52,30.12,29.99,2,0,6,0.00
2013-7-19,94.1,86.3,79.5,78.0,75.9,73.8,89,72,57,30.01,29.84,4,2,14,0.00
2013-7-20,92.6,83.0,75.4,74.4,70.3,66.7,84,66,53,29.87,29.78,4,2,17,0.02
2013-7-21,90.2,79.6,73.7,71.3,69.4,67.3,85,72,51,29.95,29.85,3,1,9,0.00
2013-7-22,84.1,77.5,73.4,74.0,70.3,67.5,89,79,68,29.95,29.79,4,2,12,0.28
2013-7-23,88.3,77.7,71.1,74.1,70.2,67.8,91,79,59,29.80,29.61,3,1,16,0.84
2013-7-24,79.1,74.4,68.2,68.0,63.7,54.1,86,70,54,29.94,29.66,4,1,17,0.00
2013-7-25,73.7,67.2,61.8,58.8,55.1,51.6,73,66,58,30.05,29.94,4,2,12,0.00
2013-7-26,83.1,72.5,64.0,62.2,58.4,56.3,82,63,45,30.07,30.02,2,0,11,0.00
2013-7-27,88.4,74.9,65.0,66.4,62.6,58.0,88,67,45,30.06,29.93,0,0,0,0.00
2013-7-28,81.6,73.8,68.2,71.8,66.5,60.9,91,78,69,29.98,29.90,0,0,0,0.41
2013-7-29,85.0,74.0,66.8,67.2,61.0,53.9,92,68,35,30.13,29.97,0,0,0,0.02
2013-7-30,82.1,71.0,61.0,60.2,57.8,55.4,84,65,42,30.21,30.13,0,0,0,0.00
2013-7-31,82.1,72.0,61.5,65.5,60.4,56.8,86,69,44,30.18,30.04,0,0,0,0.00
2013-8-1,73.3,70.4,68.0,69.2,65.5,60.6,91,85,72,30.05,29.84,0,0,0,1.27
2013-8-2,85.5,75.0,68.2,67.8,64.9,59.3,93,73,45,29.94,29.83,0,0,0,0.00
2013-8-3,76.7,71.2,67.4,65.9,63.7,61.3,84,77,67,29.95,29.89,0,0,0,0.00
2013-8-4,81.1,71.0,63.0,62.7,58.1,53.5,90,66,44,30.01,29.88,0,0,0,0.00
2013-8-5,80.7,68.7,58.3,56.9,53.6,49.3,85,61,34,30.10,30.01,0,0,0,0.00
2013-8-6,79.8,68.0,58.5,63.9,58.5,53.7,86,73,50,30.12,30.05,0,0,0,0.00
2013-8-7,75.5,71.4,67.5,68.3,65.6,61.0,88,82,71,30.13,30.05,0,0,0,0.01
2013-8-8,85.0,76.8,70.0,74.6,70.1,67.2,93,81,63,30.07,29.99,0,0,0,0.13
2013-8-9,82.2,41.7,75.3,73.2,-7.2,-99.9,87,45,72,30.03,29.83,0,0,0,0.00
2013-8-10,78.4,13.9,71.1,64.3,-69.2,-99.9,77,15,58,30.06,29.90,1,0,6,0.00
2013-8-11,87.4,74.5,63.4,65.9,61.3,55.1,86,66,41,30.14,30.03,3,1,11,0.00
2013-8-12,85.0,75.7,70.1,68.1,66.0,61.6,88,73,50,30.05,29.93,2,1,9,0.00
2013-8-13,81.9,73.6,66.5,69.4,66.4,62.5,90,79,59,29.94,29.73,4,1,17,2.43
2013-8-14,73.6,66.3,60.4,64.9,54.1,48.0,76,65,59,29.91,29.77,2,1,11,0.00
2013-8-15,80.6,65.9,55.1,55.9,52.0,48.6,85,64,33,30.17,30.06,2,1,9,0.00
2013-8-16,84.2,68.5,56.3,59.4,54.1,51.0,86,63,33,30.21,30.14,2,1,6,0.00
2013-8-17,84.0,70.1,58.6,58.7,56.2,53.4,87,64,39,30.27,30.21,2,1,8,0.00
2013-8-18,75.3,68.6,64.3,62.2,59.7,56.1,87,74,53,30.27,30.15,3,1,9,0.04
2013-8-19,77.6,69.7,63.0,65.2,61.6,57.5,88,76,59,30.17,30.07,2,1,8,0.00
2013-8-20,89.1,74.3,63.7,67.4,64.2,60.3,92,73,44,30.15,30.08,2,0,7,0.00
2013-8-21,90.2,76.4,65.2,69.4,64.6,59.0,90,70,37,30.20,30.08,2,0,7,0.00
2013-8-22,84.1,77.1,73.5,71.7,69.6,68.2,90,78,64,30.09,29.91,3,1,10,0.03
2013-8-23,75.0,71.5,65.2,67.2,62.8,59.9,86,75,60,30.10,29.92,3,1,9,0.00
2013-8-24,83.5,69.9,61.3,59.2,54.3,49.2,86,61,34,30.36,30.09,3,1,14,0.00
2013-8-25,85.3,69.1,56.6,57.7,54.4,51.2,85,62,34,30.43,30.26,1,0,8,0.00
2013-8-26,88.4,74.4,64.4,66.4,60.6,54.6,74,63,45,30.29,29.96,3,0,12,0.00
2013-8-27,90.3,78.8,70.9,66.8,65.0,63.3,78,64,44,29.97,29.88,1,0,11,0.00
2013-8-28,74.5,72.2,70.1,70.2,67.9,64.9,90,86,79,29.92,29.85,1,0,7,1.22
2013-8-29,82.1,74.3,70.9,69.0,67.2,63.1,90,79,62,30.04,29.88,2,1,10,0.00
2013-8-30,82.3,74.7,68.5,70.7,66.7,63.1,86,76,66,30.04,29.89,2,0,11,0.00
2013-8-31,87.4,78.1,71.6,73.1,69.3,66.5,86,75,62,29.91,29.81,2,0,11,0.00
2013-9-1,90.5,79.6,72.6,72.7,70.5,68.2,88,75,53,29.87,29.78,1,0,7,0.06
2013-9-2,81.1,76.1,72.2,73.1,71.4,69.1,92,86,73,29.82,29.73,1,0,8,1.14
2013-9-3,84.7,74.8,67.8,70.5,63.9,56.0,91,71,45,29.93,29.73,1,0,10,0.00
2013-9-4,84.5,70.7,61.0,59.0,56.5,54.7,82,63,39,30.05,29.92,1,0,8,0.00
2013-9-5,79.0,68.5,59.2,62.0,55.1,45.4,82,64,37,30.15,29.98,2,0,16,0.00
2013-9-6,76.5,63.1,53.1,47.6,44.0,39.6,74,53,27,30.27,30.14,1,0,10,0.00
2013-9-7,82.5,64.9,50.5,57.6,50.0,44.2,81,61,34,30.16,29.94,0,0,8,0.00
2013-9-8,82.0,71.9,64.7,64.7,58.0,45.5,82,63,47,30.08,29.87,2,0,13,0.00
2013-9-9,79.0,65.7,52.3,60.3,52.5,44.6,77,63,47,30.23,30.07,1,0,9,0.00
2013-9-10,89.9,76.8,68.4,73.3,67.4,59.3,82,73,57,30.19,30.08,2,0,11,0.00
2013-9-11,94.5,81.7,72.6,75.7,71.4,69.0,90,73,51,30.14,30.01,2,0,12,0.00
2013-9-12,88.2,77.7,70.8,73.4,70.0,67.1,89,78,59,30.02,29.74,1,0,10,0.23
2013-9-13,78.8,69.4,61.3,67.5,59.1,50.1,91,72,46,29.91,29.67,3,0,15,0.09
2013-9-14,65.6,59.0,53.0,49.7,47.0,45.3,78,65,52,30.17,29.89,2,0,13,0.00
2013-9-15,76.0,60.5,47.9,54.7,48.2,42.0,81,66,40,30.24,30.10,2,0,8,0.00
2013-9-16,72.5,63.5,58.9,58.3,54.8,50.2,86,74,55,30.25,30.05,0,0,8,0.04
2013-9-17,70.3,57.6,48.5,48.9,42.1,37.5,77,58,35,30.44,30.24,3,0,14,0.00
2013-9-18,77.0,58.2,45.1,49.7,44.2,39.5,84,63,31,30.36,30.20,0,0,3,0.00
2013-9-19,80.8,62.3,48.8,55.4,50.2,43.4,86,67,38,30.22,30.09,0,0,0,0.00
2013-9-20,60.5,56.3,54.0,53.5,51.1,49.0,85,83,80,30.10,30.09,0,0,0,0.00
2013-9-21,82.3,67.8,56.1,65.0,57.6,51.7,88,72,44,30.02,29.69,2,0,14,0.46
2013-9-22,69.3,63.5,56.2,60.9,51.2,42.9,87,66,45,29.93,29.69,2,0,15,0.21
2013-9-23,71.8,58.6,49.2,46.8,42.8,40.1,75,57,39,30.07,29.93,2,0,13,0.00
2013-9-24,74.9,58.0,44.8,52.4,45.2,39.0,81,64,40,30.09,29.92,1,0,10,0.00
2013-9-25,76.2,59.7,48.0,51.9,46.8,42.7,85,66,33,29.98,29.88,0,0,5,0.00
2013-9-26,78.3,61.4,50.9,56.8,51.5,46.0,85,72,45,30.09,29.93,0,0,5,0.00
2013-9-27,71.9,63.0,57.9,54.9,52.5,49.3,86,70,47,30.26,30.09,0,0,7,0.00
2013-9-28,76.9,63.7,55.9,53.4,51.4,47.7,86,67,39,30.33,30.24,2,0,11,0.00
2013-9-29,76.4,60.7,50.8,55.5,50.7,45.8,86,71,45,30.25,30.09,1,0,8,0.00
2013-9-30,77.4,60.8,49.4,54.6,50.1,44.6,88,70,44,30.10,29.99,0,0,6,0.00
2013-10-1,82.7,64.5,52.2,60.5,54.4,48.1,88,72,45,30.05,29.94,0,0,7,0.00
2013-10-2,86.5,69.0,56.5,63.1,58.3,52.4,90,71,45,30.04,29.96,1,0,9,0.00
2013-10-3,84.5,70.1,59.2,64.5,59.4,55.0,89,71,44,30.14,30.03,0,0,0,0.00
2013-10-4,88.0,73.1,62.3,66.0,62.6,58.6,91,72,46,30.09,30.00,1,0,8,0.00
2013-10-5,88.3,74.5,65.3,67.6,64.6,61.1,89,73,46,30.09,30.01,1,0,6,0.00
2013-10-6,83.2,71.6,67.0,69.9,64.9,62.4,87,80,61,30.07,29.98,1,0,8,0.03
2013-10-7,78.4,67.8,57.5,68.9,62.4,50.0,89,83,70,30.01,29.79,6,1,21,0.31
2013-10-8,68.4,57.8,49.7,49.9,46.6,44.3,85,68,44,30.32,29.99,4,1,13,0.00
2013-10-9,61.3,56.3,51.7,48.9,46.1,41.6,81,69,60,30.36,30.26,4,1,18,0.00
2013-10-10,59.8,56.5,53.0,54.7,51.0,46.5,88,82,68,30.27,30.03,5,3,17,0.34
2013-10-11,64.3,61.0,58.4,59.4,57.0,53.7,91,87,79,30.06,29.97,6,4,18,0.99
2013-10-12,70.8,64.4,59.8,57.8,52.1,43.1,81,65,51,30.23,30.04,6,4,21,0.00
2013-10-13,71.5,62.1,54.0,54.0,49.9,46.1,78,65,48,30.37,30.23,6,3,17,0.00
2013-10-14,73.6,57.8,47.8,52.5,48.1,42.7,86,72,44,30.37,30.24,1,0,7,0.00
2013-10-15,77.7,59.5,47.8,52.5,47.2,42.6,86,67,33,30.27,30.11,2,0,8,0.00
2013-10-16,68.1,60.2,53.9,59.0,54.1,45.5,87,80,70,30.13,29.93,1,0,5,0.00
2013-10-17,74.3,66.1,61.0,62.4,60.0,56.8,89,81,65,29.95,29.72,4,1,13,0.04
2013-10-18,69.1,59.4,49.0,60.3,45.4,40.1,82,61,42,30.01,29.72,4,1,16,0.00
2013-10-19,65.8,54.2,44.5,53.1,45.1,38.8,85,73,48,30.01,29.78,3,1,11,0.03
2013-10-20,65.9,54.2,46.3,51.7,39.4,35.6,86,60,33,30.08,29.80,2,1,17,0.01
2013-10-21,72.6,54.2,40.6,45.4,39.3,34.6,82,61,31,30.16,30.00,3,1,12,0.00
2013-10-22,63.5,55.2,46.5,49.9,44.9,32.5,86,69,53,30.00,29.80,2,0,10,0.00
2013-10-23,59.1,49.4,43.2,41.8,36.0,32.0,74,61,45,29.84,29.62,3,1,10,0.00
2013-10-24,54.8,46.1,40.3,35.2,30.2,25.4,72,55,34,30.06,29.81,4,1,24,0.00
2013-10-25,119.2,29.6,37.7,31.6,-16.8,-99.9,70,40,57,30.19,30.06,1,0,8,0.00
2013-10-26,61.1,31.9,34.0,99.9,-14.5,-99.9,78,31,31,30.25,29.91,0,0,0,0.00
2013-10-27,60.3,50.0,41.2,33.9,32.0,29.8,69,51,35,30.15,29.90,0,0,0,0.00
2013-10-28,66.3,47.7,35.1,39.2,34.1,28.0,80,62,34,30.31,30.14,1,0,8,0.00
2013-10-29,66.1,49.1,37.6,41.8,37.0,31.4,81,65,36,30.40,30.30,3,0,8,0.00
2013-10-30,59.1,51.1,44.0,50.9,44.8,38.3,83,79,74,30.36,30.19,2,0,7,0.00
2013-10-31,67.0,59.4,49.7,58.1,53.4,45.3,90,81,69,30.23,29.83,4,1,15,0.01
2013-11-1,69.4,64.3,56.3,62.3,57.2,52.6,89,78,58,29.85,29.59,7,3,28,0.14
2013-11-2,67.6,57.9,50.8,53.5,46.6,39.9,90,68,44,29.82,29.64,3,0,14,0.00
2013-11-3,55.9,47.2,37.2,40.2,30.5,19.3,76,54,30,30.46,29.82,6,2,20,0.00
2013-11-4,54.2,40.1,30.8,26.9,20.4,15.9,66,47,24,30.66,30.47,5,1,15,0.00
2013-11-5,62.6,47.6,34.8,42.0,34.9,25.3,75,62,45,30.64,30.49,2,0,8,0.00
2013-11-6,72.3,57.0,46.7,51.3,45.7,39.9,81,67,45,30.49,30.08,4,2,14,0.00
2013-11-7,61.1,55.3,46.1,55.5,48.6,33.9,87,79,60,30.07,29.82,4,2,18,0.02
2013-11-8,51.0,44.1,37.7,34.8,27.0,24.8,67,51,38,30.26,30.00,5,2,16,0.01
2013-11-9,58.2,43.1,31.6,32.6,27.7,23.8,75,56,31,30.33,30.02,3,1,11,0.00
2013-11-10,59.4,47.6,36.4,35.4,29.8,24.8,76,52,34,30.12,29.90,5,2,20,0.00
2013-11-11,60.0,49.1,38.6,34.2,29.2,24.9,64,47,33,30.25,30.00,4,2,15,0.00
2013-11-12,50.7,39.5,28.9,35.8,21.6,11.2,68,49,33,30.34,29.96,6,2,22,0.00
2013-11-13,45.1,34.0,27.8,18.7,14.0,9.8,60,45,27,30.42,30.33,5,1,18,0.00
2013-11-14,59.9,42.4,30.9,22.8,17.0,13.1,57,39,17,30.32,30.21,4,2,16,0.00
2013-11-15,61.5,43.8,31.8,31.6,27.0,22.1,71,54,27,30.27,30.17,1,0,5,0.00
2013-11-16,64.6,51.3,41.8,48.1,41.7,31.6,83,71,49,30.35,30.26,3,0,9,0.02
2013-11-17,68.4,59.0,52.1,55.9,50.6,44.5,82,74,61,30.27,29.80,4,1,13,0.26
2013-11-18,67.7,60.2,50.9,58.8,38.7,24.9,88,49,25,29.87,29.67,6,3,18,0.07
2013-11-19,51.2,44.9,36.1,27.3,22.9,19.3,51,42,33,30.37,29.87,5,3,24,0.00
2013-11-20,53.9,37.9,29.1,20.7,16.9,11.8,65,45,21,30.60,30.37,4,1,10,0.00
2013-11-21,54.2,42.0,27.6,40.0,27.9,14.8,68,57,47,30.60,30.41,3,1,9,0.00
2013-11-22,58.1,52.6,49.5,49.0,45.3,39.9,84,76,67,30.40,29.98,2,1,9,0.04
2013-11-23,52.5,42.8,31.1,47.0,25.4,12.3,82,51,36,30.11,29.98,5,4,30,0.01
2013-11-24,32.7,27.4,23.5,11.5,-0.4,-3.0,44,30,24,30.45,30.11,7,4,30,0.00
2013-11-25,39.8,29.9,22.8,14.4,9.6,2.5,55,43,29,30.54,30.35,3,1,12,0.00
2013-11-26,46.0,37.2,33.2,42.6,25.6,14.1,88,64,45,30.35,29.69,4,1,14,0.81
2013-11-27,60.5,43.4,32.6,58.2,36.6,17.3,92,77,52,29.86,29.44,6,4,22,1.37
2013-11-28,38.8,32.5,29.2,19.5,15.4,13.3,60,49,40,30.49,29.88,6,3,19,0.00
2013-11-29,43.4,33.6,25.4,20.4,18.0,15.8,73,54,36,30.75,30.48,3,0,13,0.00
2013-11-30,45.0,32.9,21.6,26.6,19.6,11.9,68,58,46,30.74,30.40,3,1,10,0.00
2013-12-1,50.9,39.7,30.2,29.6,26.8,22.4,73,61,43,30.38,30.05,1,0,6,0.00
2013-12-2,54.3,43.1,39.0,33.3,30.6,28.6,71,62,44,30.04,29.90,0,0,2,0.00
2013-12-3,57.1,43.9,36.3,36.4,32.7,28.8,75,66,43,30.03,29.90,1,0,5,0.00
2013-12-4,54.5,45.1,35.6,42.3,35.5,28.8,78,69,59,30.13,30.02,0,0,5,0.00
2013-12-5,58.2,53.6,49.3,55.3,49.5,42.6,90,86,75,30.11,29.95,2,0,10,0.00
2013-12-6,60.8,49.6,38.4,58.2,44.9,32.7,92,84,75,30.17,29.90,3,1,14,0.50
2013-12-7,40.2,36.7,31.1,32.6,27.3,23.0,81,69,53,30.54,30.10,3,1,16,0.07
2013-12-8,32.5,29.9,28.2,25.5,19.5,14.3,80,66,52,30.60,30.36,2,0,11,0.00
2013-12-9,37.5,35.1,31.3,32.0,30.0,25.8,83,82,80,30.33,30.02,1,0,9,0.51
2013-12-10,36.0,32.8,25.6,29.8,26.4,17.2,82,77,69,30.19,29.96,1,0,9,0.04
2013-12-11,36.9,26.8,18.2,18.5,15.6,9.7,72,63,44,30.39,30.20,4,1,14,0.18
2013-12-12,31.5,24.6,20.1,16.4,10.2,4.3,74,55,34,30.40,30.22,3,1,13,0.04
2013-12-13,39.4,29.8,21.9,19.3,11.2,4.1,65,46,35,30.35,30.17,4,2,16,0.04
2013-12-14,31.9,30.4,28.4,27.8,22.4,18.1,86,72,59,30.43,29.73,6,3,16,0.00
2013-12-15,38.7,34.3,30.3,31.3,26.4,19.3,87,73,57,29.90,29.59,4,1,21,0.80
2013-12-16,33.5,28.2,22.9,20.4,10.7,7.0,63,48,33,30.25,29.89,4,2,15,0.05
2013-12-17,33.3,28.2,24.5,24.6,18.9,12.3,76,68,51,30.22,29.95,2,0,8,0.02
2013-12-18,39.0,29.7,21.8,20.7,17.7,14.7,77,62,44,30.22,29.97,5,1,16,0.06
2013-12-19,26.2,24.6,23.7,19.6,16.5,15.4,76,71,67,30.23,30.15,0,0,4,0.00
2013-12-20,53.9,43.1,34.0,37.5,30.7,26.5,77,63,43,30.12,30.00,3,0,9,0.00
2013-12-21,67.6,53.1,42.0,53.9,45.3,36.9,87,76,55,30.03,29.93,4,1,19,0.00
2013-12-22,66.1,62.9,59.9,60.2,56.9,53.7,85,81,77,30.00,29.84,8,4,25,0.08
2013-12-23,59.9,54.6,42.3,56.7,48.8,31.0,90,81,63,30.19,29.95,3,1,17,0.39
2013-12-24,41.5,35.5,27.4,30.2,19.2,9.4,64,51,44,30.41,30.16,4,2,17,0.00
2013-12-25,34.8,27.7,21.9,12.8,7.8,3.8,54,43,32,30.56,30.41,3,1,14,0.00
2013-12-26,42.1,31.1,24.5,25.4,19.7,13.7,70,63,48,30.42,30.20,4,1,13,0.00
2013-12-27,46.3,32.9,24.1,20.3,18.6,15.7,74,58,33,30.40,30.30,4,1,13,0.00
2013-12-28,60.4,41.2,26.9,27.9,23.2,18.6,72,52,28,30.32,30.12,5,2,14,0.00
2013-12-29,45.7,42.4,39.8,41.4,33.8,26.7,85,72,52,30.11,29.49,5,1,15,0.86
2013-12-30,43.9,38.5,29.7,36.1,26.9,12.9,84,64,49,30.19,29.77,4,2,13,0.00
2013-12-31,36.4,30.3,25.4,22.8,13.7,8.5,60,50,41,30.33,30.09,4,2,16,0.00
2014-1-1,40.3,32.1,24.5,21.9,15.9,8.8,57,51,42,30.43,30.23,3,1,8,0.00
2014-1-2,33.2,29.9,23.1,23.3,20.7,16.3,75,68,58,30.20,29.67,6,4,18,0.00